UB3APB-WY>APRS,TCPIP*,qAC,T2MOSCOW:!4435.05N/04007.56E_000/000t065h49 Temp 24.7/18.1/18.4/17.9C Hum 49.0% (2026-05-06 16:52:08)
UB3APB-WY>APRS,TCPIP*,qAC,T2RUSSIA2:!4435.05N/04007.56E_000/000t032h00 Temp 0.0/---/---/---C Hum 0.0% (2026-05-06 16:57:48)
UB3APB-WY>APRS,TCPIP*,qAC,T2RUSSIA2:!4435.05N/04007.56E_000/000t065h50 Temp 25.2/18.2/18.4/17.9C Hum 50.0% (2026-05-06 16:58:16)
UB3APB-WY>APRS,TCPIP*,qAC,T2MOSCOW:!4435.05N/04007.56E_000/000t065h49 Temp 24.8/18.4/18.4/17.9C Hum 49.0% (2026-05-06 17:03:51)
UB3APB-WY>APRS,TCPIP*,qAC,T2ADG:!4435.05N/04007.56E_000/000t065h48 Temp 24.8/18.3/18.4/17.9C Hum 48.0% (2026-05-06 17:08:57)
UB3APB-WY>APRS,TCPIP*,qAC,T2MOSCOW:!4435.05N/04007.56E_000/000t065h48 Temp 24.7/18.3/18.3/18.2C Hum 48.0% (2026-05-06 17:14:03)
UB3APB-WY>APRS,TCPIP*,qAC,T2ADG:!4435.05N/04007.56E_000/000t065h50 Temp 24.7/18.3/18.3/17.9C Hum 50.0% (2026-05-06 17:19:09)
UB3APB-WY>APRS,TCPIP*,qAC,T2RUSSIA2:!4435.05N/04007.56E_000/000t065h49 Temp 24.6/18.2/18.3/17.9C Hum 49.0% (2026-05-06 17:24:15)
UB3APB-WY>APRS,TCPIP*,qAC,T2VENYOV:!4435.05N/04007.56E_000/000t064h47 Temp 24.5/18.0/18.1/18.1C Hum 47.0% (2026-05-06 17:29:20)
UB3APB-WY>APRS,TCPIP*,qAC,T2MOSCOW:!4435.05N/04007.56E_000/000t064h49 Temp 24.5/18.0/18.2/18.2C Hum 49.0% (2026-05-06 17:34:26)
UB3APB-WY>APRS,TCPIP*,qAC,T2ADG:!4435.05N/04007.56E_000/000t065h49 Temp 24.6/18.1/18.1/18.4C Hum 49.0% (2026-05-06 17:39:32)
UB3APB-WY>APRS,TCPIP*,qAC,T2RUSSIA2:!4435.05N/04007.56E_000/000t065h50 Temp 24.5/18.3/18.1/18.3C Hum 50.0% (2026-05-06 17:44:38)
UB3APB-WY>APRS,TCPIP*,qAC,T2MOSCOW:!4435.05N/04007.56E_000/000t065h48 Temp 24.5/18.4/18.2/18.1C Hum 48.0% (2026-05-06 17:50:14)
UB3APB-WY>APRS,TCPIP*,qAC,T2ADG:!4435.05N/04007.56E_000/000t066h49 Temp 24.3/19.0/18.1/18.1C Hum 49.0% (2026-05-06 17:55:20)
UB3APB-WY>APRS,TCPIP*,qAC,T2RUSSIA2:!4435.05N/04007.56E_000/000t065h51 Temp 24.4/18.3/17.9/18.1C Hum 51.0% (2026-05-06 18:00:25)
UB3APB-WY>APRS,TCPIP*,qAC,T2VENYOV:!4435.05N/04007.56E_000/000t064h53 Temp 24.4/17.6/17.8/18.1C Hum 53.0% (2026-05-06 18:05:31)
UB3APB-WY>APRS,TCPIP*,qAC,T2RUSSIA2:!4435.05N/04007.56E_000/000t063h58 Temp 24.3/17.1/17.5/18.0C Hum 58.0% (2026-05-06 18:10:36)
UB3APB-WY>APRS,TCPIP*,qAC,T2VENYOV:!4435.05N/04007.56E_000/000t062h60 Temp 24.3/16.8/17.3/18.0C Hum 60.0% (2026-05-06 18:16:13)
UB3APB-WY>APRS,TCPIP*,qAC,T2RUSSIA2:!4435.05N/04007.56E_000/000t062h61 Temp 24.3/16.6/17.2/18.0C Hum 61.0% (2026-05-06 18:21:18)
UB3APB-WY>APRS,TCPIP*,qAC,T2ADG:!4435.05N/04007.56E_000/000t061h61 Temp 24.2/16.3/17.0/18.0C Hum 61.0% (2026-05-06 18:26:55)
UB3APB-WY>APRS,TCPIP*,qAC,T2RUSSIA2:!4435.05N/04007.56E_000/000t061h63 Temp 24.1/16.0/16.9/17.9C Hum 63.0% (2026-05-06 18:32:01)
UB3APB-WY>APRS,TCPIP*,qAC,T2MOSCOW:!4435.05N/04007.56E_000/000t061h64 Temp 24.2/15.9/16.5/17.9C Hum 64.0% (2026-05-06 18:37:08)
UB3APB-WY>APRS,TCPIP*,qAC,T2ADG:!4435.05N/04007.56E_000/000t060h68 Temp 24.1/15.5/16.1/17.9C Hum 68.0% (2026-05-06 18:42:14)
UB3APB-WY>APRS,TCPIP*,qAC,T2VENYOV:!4435.05N/04007.56E_000/000t059h69 Temp 24.1/15.2/15.8/17.9C Hum 69.0% (2026-05-06 18:47:19)
UB3APB-WY>APRS,TCPIP*,qAC,T2RUSSIA2:!4435.05N/04007.56E_000/000t059h73 Temp 24.1/14.8/15.6/17.9C Hum 73.0% (2026-05-06 18:52:25)
UB3APB-WY>APRS,TCPIP*,qAC,T2ADG:!4435.05N/04007.56E_000/000t058h74 Temp 24.0/14.6/15.3/17.8C Hum 74.0% (2026-05-06 18:58:02)
UB3APB-WY>APRS,TCPIP*,qAC,T2VENYOV:!4435.05N/04007.56E_000/000t059h72 Temp 24.1/14.8/15.3/17.8C Hum 72.0% (2026-05-06 19:03:08)
UB3APB-WY>APRS,TCPIP*,qAC,T2MOSCOW:!4435.05N/04007.56E_000/000t058h72 Temp 24.1/14.4/15.2/17.8C Hum 72.0% (2026-05-06 19:08:14)
UB3APB-WY>APRS,TCPIP*,qAC,T2VENYOV:!4435.05N/04007.56E_000/000t058h72 Temp 24.1/14.2/15.1/17.8C Hum 72.0% (2026-05-06 19:13:20)
UB3APB-WY>APRS,TCPIP*,qAC,T2RUSSIA2:!4435.05N/04007.56E_000/000t057h73 Temp 24.0/13.9/14.7/17.8C Hum 73.0% (2026-05-06 19:18:26)
UB3APB-WY>APRS,TCPIP*,qAC,T2ADG:!4435.05N/04007.56E_000/000t057h77 Temp 24.0/13.7/14.6/17.8C Hum 77.0% (2026-05-06 19:24:02)
UB3APB-WY>APRS,TCPIP*,qAC,T2MOSCOW:!4435.05N/04007.56E_000/000t056h76 Temp 24.1/13.6/14.6/17.8C Hum 76.0% (2026-05-06 19:29:08)
UB3APB-WY>APRS,TCPIP*,qAC,T2RUSSIA2:!4435.05N/04007.56E_000/000t056h76 Temp 24.1/13.4/14.4/17.7C Hum 76.0% (2026-05-06 19:34:14)
UB3APB-WY>APRS,TCPIP*,qAC,T2RUSSIA2:!4435.05N/04007.56E_000/000t056h78 Temp 24.0/13.3/14.2/17.7C Hum 78.0% (2026-05-06 19:39:20)
UB3APB-WY>APRS,TCPIP*,qAC,T2ADG:!4435.05N/04007.56E_000/000t056h80 Temp 24.0/13.2/14.0/17.6C Hum 80.0% (2026-05-06 19:44:56)
UB3APB-WY>APRS,TCPIP*,qAC,T2RUSSIA2:!4435.05N/04007.56E_000/000t056h81 Temp 24.0/13.2/14.1/17.6C Hum 81.0% (2026-05-06 19:50:01)
UB3APB-WY>APRS,TCPIP*,qAC,T2RUSSIA2:!4435.05N/04007.56E_000/000t056h81 Temp 24.0/13.1/14.0/17.6C Hum 81.0% (2026-05-06 19:55:07)
UB3APB-WY>APRS,TCPIP*,qAC,T2MOSCOW:!4435.05N/04007.56E_000/000t056h81 Temp 24.0/13.4/14.5/17.5C Hum 81.0% (2026-05-06 20:00:43)
UB3APB-WY>APRS,TCPIP*,qAC,T2ADG:!4435.05N/04007.56E_000/000t056h82 Temp 24.0/13.6/14.5/17.5C Hum 82.0% (2026-05-06 20:05:49)
UB3APB-WY>APRS,TCPIP*,qAC,T2VENYOV:!4435.05N/04007.56E_000/000t057h83 Temp 24.0/13.8/14.6/17.5C Hum 83.0% (2026-05-06 20:10:55)
UB3APB-WY>APRS,TCPIP*,qAC,T2RUSSIA2:!4435.05N/04007.56E_000/000t057h84 Temp 24.0/13.8/14.6/17.4C Hum 84.0% (2026-05-06 20:16:02)
UB3APB-WY>APRS,TCPIP*,qAC,T2ADG:!4435.05N/04007.56E_000/000t057h84 Temp 24.0/13.8/14.5/17.4C Hum 84.0% (2026-05-06 20:21:37)
UB3APB-WY>APRS,TCPIP*,qAC,T2VENYOV:!4435.05N/04007.56E_000/000t057h84 Temp 24.0/13.7/14.5/17.4C Hum 84.0% (2026-05-06 20:26:44)
UB3APB-WY>APRS,TCPIP*,qAC,T2MOSCOW:!4435.05N/04007.56E_000/000t056h84 Temp 24.0/13.6/14.5/17.3C Hum 84.0% (2026-05-06 20:31:50)
UB3APB-WY>APRS,TCPIP*,qAC,T2ADG:!4435.05N/04007.56E_000/000t056h85 Temp 24.0/13.6/14.4/17.3C Hum 85.0% (2026-05-06 20:36:56)
UB3APB-WY>APRS,TCPIP*,qAC,T2VENYOV:!4435.05N/04007.56E_000/000t056h84 Temp 24.0/13.6/14.3/17.3C Hum 84.0% (2026-05-06 20:42:02)
UB3APB-WY>APRS,TCPIP*,qAC,T2VENYOV:!4435.05N/04007.56E_000/000t056h83 Temp 24.0/13.6/14.3/17.3C Hum 83.0% (2026-05-06 20:47:08)
UB3APB-WY>APRS,TCPIP*,qAC,T2VENYOV:!4435.05N/04007.56E_000/000t056h84 Temp 23.9/13.6/14.3/17.3C Hum 84.0% (2026-05-06 20:52:14)
UB3APB-WY>APRS,TCPIP*,qAC,T2RUSSIA2:!4435.05N/04007.56E_000/000t056h84 Temp 24.0/13.4/14.3/17.3C Hum 84.0% (2026-05-06 20:57:19)
UB3APB-WY>APRS,TCPIP*,qAC,T2RUSSIA2:!4435.05N/04007.56E_000/000t056h84 Temp 24.0/13.4/14.2/17.2C Hum 84.0% (2026-05-06 21:02:26)
UB3APB-WY>APRS,TCPIP*,qAC,T2VENYOV:!4435.05N/04007.56E_000/000t056h85 Temp 24.1/13.4/14.2/17.2C Hum 85.0% (2026-05-06 21:08:03)
UB3APB-WY>APRS,TCPIP*,qAC,T2MOSCOW:!4435.05N/04007.56E_000/000t056h86 Temp 24.1/13.2/14.1/17.2C Hum 86.0% (2026-05-06 21:13:09)
UB3APB-WY>APRS,TCPIP*,qAC,T2VENYOV:!4435.05N/04007.56E_000/000t056h86 Temp 24.1/13.3/14.0/17.2C Hum 86.0% (2026-05-06 21:18:14)
UB3APB-WY>APRS,TCPIP*,qAC,T2RUSSIA2:!4435.05N/04007.56E_000/000t056h85 Temp 24.3/13.3/14.0/17.1C Hum 85.0% (2026-05-06 21:23:21)
UB3APB-WY>APRS,TCPIP*,qAC,T2MOSCOW:!4435.05N/04007.56E_000/000t056h86 Temp 24.3/13.1/14.0/17.1C Hum 86.0% (2026-05-06 21:28:57)
UB3APB-WY>APRS,TCPIP*,qAC,T2MOSCOW:!4435.05N/04007.56E_000/000t056h87 Temp 24.4/13.1/14.1/17.1C Hum 87.0% (2026-05-06 21:34:03)
UB3APB-WY>APRS,TCPIP*,qAC,T2RUSSIA2:!4435.05N/04007.56E_000/000t056h86 Temp 24.3/13.2/14.0/17.1C Hum 86.0% (2026-05-06 21:39:09)
UB3APB-WY>APRS,TCPIP*,qAC,T2ADG:!4435.05N/04007.56E_000/000t056h86 Temp 24.4/13.3/14.0/17.1C Hum 86.0% (2026-05-06 21:44:15)
UB3APB-WY>APRS,TCPIP*,qAC,T2MOSCOW:!4435.05N/04007.56E_000/000t056h86 Temp 24.5/13.3/14.0/17.1C Hum 86.0% (2026-05-06 21:49:21)
UB3APB-WY>APRS,TCPIP*,qAC,T2ADG:!4435.05N/04007.56E_000/000t056h86 Temp 24.5/13.2/13.9/17.0C Hum 86.0% (2026-05-06 21:54:27)
UB3APB-WY>APRS,TCPIP*,qAC,T2RUSSIA2:!4435.05N/04007.56E_000/000t055h87 Temp 24.4/13.0/13.8/17.0C Hum 87.0% (2026-05-06 21:59:32)
UB3APB-WY>APRS,TCPIP*,qAC,T2RUSSIA2:!4435.05N/04007.56E_000/000t055h88 Temp 24.5/12.9/13.6/16.9C Hum 88.0% (2026-05-06 22:04:41)
UB3APB-WY>APRS,TCPIP*,qAC,T2MOSCOW:!4435.05N/04007.56E_000/000t055h89 Temp 24.6/12.8/13.6/16.9C Hum 89.0% (2026-05-06 22:09:50)
UB3APB-WY>APRS,TCPIP*,qAC,T2ADG:!4435.05N/04007.56E_000/000t055h89 Temp 24.6/12.7/13.4/16.9C Hum 89.0% (2026-05-06 22:14:56)
UB3APB-WY>APRS,TCPIP*,qAC,T2RUSSIA2:!4435.05N/04007.56E_000/000t055h89 Temp 24.7/12.6/13.4/16.9C Hum 89.0% (2026-05-06 22:20:02)
UB3APB-WY>APRS,TCPIP*,qAC,T2VENYOV:!4435.05N/04007.56E_000/000t055h89 Temp 24.7/12.6/13.6/16.8C Hum 89.0% (2026-05-06 22:25:07)
UB3APB-WY>APRS,TCPIP*,qAC,T2RUSSIA2:!4435.05N/04007.56E_000/000t055h88 Temp 24.7/12.7/13.5/16.8C Hum 88.0% (2026-05-06 22:30:13)
UB3APB-WY>APRS,TCPIP*,qAC,T2MOSCOW:!4435.05N/04007.56E_000/000t055h89 Temp 24.7/12.6/13.4/16.8C Hum 89.0% (2026-05-06 22:35:49)
UB3APB-WY>APRS,TCPIP*,qAC,T2ADG:!4435.05N/04007.56E_000/000t054h90 Temp 24.8/12.4/13.3/16.7C Hum 90.0% (2026-05-06 22:40:55)
UB3APB-WY>APRS,TCPIP*,qAC,T2ADG:!4435.05N/04007.56E_000/000t054h89 Temp 24.9/12.4/13.1/16.7C Hum 89.0% (2026-05-06 22:46:01)
UB3APB-WY>APRS,TCPIP*,qAC,T2RUSSIA2:!4435.05N/04007.56E_000/000t054h90 Temp 24.9/12.2/13.0/16.7C Hum 90.0% (2026-05-06 22:51:07)
UB3APB-WY>APRS,TCPIP*,qAC,T2VENYOV:!4435.05N/04007.56E_000/000t054h90 Temp 24.9/12.2/13.1/16.7C Hum 90.0% (2026-05-06 22:56:13)
UB3APB-WY>APRS,TCPIP*,qAC,T2VENYOV:!4435.05N/04007.56E_000/000t054h90 Temp 24.9/12.0/13.0/16.6C Hum 90.0% (2026-05-06 23:01:19)
UB3APB-WY>APRS,TCPIP*,qAC,T2RUSSIA2:!4435.05N/04007.56E_000/000t053h92 Temp 24.9/11.6/12.6/16.6C Hum 92.0% (2026-05-06 23:06:26)
UB3APB-WY>APRS,TCPIP*,qAC,T2MOSCOW:!4435.05N/04007.56E_000/000t053h93 Temp 24.9/11.4/12.3/16.6C Hum 93.0% (2026-05-06 23:12:02)
UB3APB-WY>APRS,TCPIP*,qAC,T2ADG:!4435.05N/04007.56E_000/000t052h93 Temp 24.8/11.1/12.2/16.5C Hum 93.0% (2026-05-06 23:17:08)
UB3APB-WY>APRS,TCPIP*,qAC,T2ADG:!4435.05N/04007.56E_000/000t052h94 Temp 24.8/11.0/12.2/16.5C Hum 94.0% (2026-05-06 23:22:14)
UB3APB-WY>APRS,TCPIP*,qAC,T2VENYOV:!4435.05N/04007.56E_000/000t052h94 Temp 24.8/11.0/12.0/16.5C Hum 94.0% (2026-05-06 23:27:19)
UB3APB-WY>APRS,TCPIP*,qAC,T2RUSSIA2:!4435.05N/04007.56E_000/000t052h94 Temp 24.8/10.9/11.9/16.4C Hum 94.0% (2026-05-06 23:32:25)
UB3APB-WY>APRS,TCPIP*,qAC,T2RUSSIA2:!4435.05N/04007.56E_000/000t051h95 Temp 24.7/10.8/11.9/16.3C Hum 95.0% (2026-05-06 23:38:01)
UB3APB-WY>APRS,TCPIP*,qAC,T2VENYOV:!4435.05N/04007.56E_000/000t052h95 Temp 24.7/10.9/11.9/16.3C Hum 95.0% (2026-05-06 23:43:07)
UB3APB-WY>APRS,TCPIP*,qAC,T2RUSSIA2:!4435.05N/04007.56E_000/000t051h95 Temp 24.6/10.8/11.8/16.3C Hum 95.0% (2026-05-06 23:48:13)
UB3APB-WY>APRS,TCPIP*,qAC,T2VENYOV:!4435.05N/04007.56E_000/000t051h95 Temp 24.6/10.6/11.8/16.3C Hum 95.0% (2026-05-06 23:53:18)
UB3APB-WY>APRS,TCPIP*,qAC,T2MOSCOW:!4435.05N/04007.56E_000/000t051h95 Temp 24.6/10.7/11.6/16.3C Hum 95.0% (2026-05-06 23:58:24)
UB3APB-WY>APRS,TCPIP*,qAC,T2RUSSIA2:!4435.05N/04007.56E_000/000t051h96 Temp 24.6/10.7/11.7/16.2C Hum 96.0% (2026-05-07 00:03:30)
UB3APB-WY>APRS,TCPIP*,qAC,T2ADG:!4435.05N/04007.56E_000/000t051h96 Temp 24.4/10.7/11.9/16.2C Hum 96.0% (2026-05-07 00:08:36)
UB3APB-WY>APRS,TCPIP*,qAC,T2RUSSIA2:!4435.05N/04007.56E_000/000t052h95 Temp 24.5/10.9/11.8/16.2C Hum 95.0% (2026-05-07 00:13:42)
UB3APB-WY>APRS,TCPIP*,qAC,T2RUSSIA2:!4435.05N/04007.56E_000/000t051h95 Temp 24.5/10.8/11.7/16.1C Hum 95.0% (2026-05-07 00:18:47)
UB3APB-WY>APRS,TCPIP*,qAC,T2VENYOV:!4435.05N/04007.56E_000/000t051h96 Temp 24.5/10.8/11.7/16.1C Hum 96.0% (2026-05-07 00:23:53)
UB3APB-WY>APRS,TCPIP*,qAC,T2RUSSIA2:!4435.05N/04007.56E_000/000t051h96 Temp 24.5/10.8/11.8/16.1C Hum 96.0% (2026-05-07 00:29:00)
UB3APB-WY>APRS,TCPIP*,qAC,T2VENYOV:!4435.05N/04007.56E_000/000t051h96 Temp 24.4/10.6/11.7/16.0C Hum 96.0% (2026-05-07 00:34:06)
UB3APB-WY>APRS,TCPIP*,qAC,T2MOSCOW:!4435.05N/04007.56E_000/000t051h96 Temp 24.4/10.6/11.8/16.0C Hum 96.0% (2026-05-07 00:39:12)
UB3APB-WY>APRS,TCPIP*,qAC,T2RUSSIA2:!4435.05N/04007.56E_000/000t051h96 Temp 24.5/10.7/11.9/15.9C Hum 96.0% (2026-05-07 00:44:18)
UB3APB-WY>APRS,TCPIP*,qAC,T2VENYOV:!4435.05N/04007.56E_000/000t052h96 Temp 24.4/10.9/11.9/15.9C Hum 96.0% (2026-05-07 00:49:24)
UB3APB-WY>APRS,TCPIP*,qAC,T2RUSSIA2:!4435.05N/04007.56E_000/000t051h96 Temp 24.4/10.8/11.9/15.8C Hum 96.0% (2026-05-07 00:54:29)
UB3APB-WY>APRS,TCPIP*,qAC,T2VENYOV:!4435.05N/04007.56E_000/000t052h96 Temp 24.2/10.9/11.8/15.8C Hum 96.0% (2026-05-07 01:00:06)
UB3APB-WY>APRS,TCPIP*,qAC,T2VENYOV:!4435.05N/04007.56E_000/000t051h96 Temp 24.4/10.5/11.4/15.8C Hum 96.0% (2026-05-07 01:05:12)
UB3APB-WY>APRS,TCPIP*,qAC,T2ADG:!4435.05N/04007.56E_000/000t051h96 Temp 24.5/10.3/11.0/15.8C Hum 96.0% (2026-05-07 01:10:18)
UB3APB-WY>APRS,TCPIP*,qAC,T2RUSSIA2:!4435.05N/04007.56E_000/000t050h97 Temp 24.3/10.1/10.8/15.8C Hum 97.0% (2026-05-07 01:15:24)
UB3APB-WY>APRS,TCPIP*,qAC,T2RUSSIA2:!4435.05N/04007.56E_000/000t050h97 Temp 24.3/9.9/10.8/15.7C Hum 97.0% (2026-05-07 01:20:30)
UB3APB-WY>APRS,TCPIP*,qAC,T2VENYOV:!4435.05N/04007.56E_000/000t050h97 Temp 24.3/9.9/10.8/15.7C Hum 97.0% (2026-05-07 01:26:06)
UB3APB-WY>APRS,TCPIP*,qAC,T2RUSSIA2:!4435.05N/04007.56E_000/000t050h98 Temp 24.3/9.9/10.7/15.6C Hum 98.0% (2026-05-07 01:31:11)
UB3APB-WY>APRS,TCPIP*,qAC,T2ADG:!4435.05N/04007.56E_000/000t050h98 Temp 24.3/10.0/10.7/15.6C Hum 98.0% (2026-05-07 01:36:47)
UB3APB-WY>APRS,TCPIP*,qAC,T2MOSCOW:!4435.05N/04007.56E_000/000t051h97 Temp 24.2/10.3/11.1/15.6C Hum 97.0% (2026-05-07 01:41:53)
UB3APB-WY>APRS,TCPIP*,qAC,T2ADG:!4435.05N/04007.56E_000/000t052h96 Temp 24.2/10.9/11.4/15.6C Hum 96.0% (2026-05-07 01:46:59)
UB3APB-WY>APRS,TCPIP*,qAC,T2RUSSIA2:!4435.05N/04007.56E_000/000t052h96 Temp 24.3/11.0/11.5/15.5C Hum 96.0% (2026-05-07 01:52:04)
UB3APB-WY>APRS,TCPIP*,qAC,T2VENYOV:!4435.05N/04007.56E_000/000t052h96 Temp 24.2/11.0/11.6/15.4C Hum 96.0% (2026-05-07 01:57:10)
UB3APB-WY>APRS,TCPIP*,qAC,T2RUSSIA2:!4435.05N/04007.56E_000/000t052h96 Temp 24.2/11.1/11.7/15.4C Hum 96.0% (2026-05-07 02:02:16)
UB3APB-WY>APRS,TCPIP*,qAC,T2VENYOV:!4435.05N/04007.56E_000/000t052h96 Temp 24.3/11.2/11.7/15.4C Hum 96.0% (2026-05-07 02:07:22)
UB3APB-WY>APRS,TCPIP*,qAC,T2MOSCOW:!4435.05N/04007.56E_000/000t052h95 Temp 24.2/11.3/11.8/15.4C Hum 95.0% (2026-05-07 02:12:28)
UB3APB-WY>APRS,TCPIP*,qAC,T2RUSSIA2:!4435.05N/04007.56E_000/000t052h95 Temp 24.2/11.2/11.8/15.3C Hum 95.0% (2026-05-07 02:17:34)
UB3APB-WY>APRS,TCPIP*,qAC,T2VENYOV:!4435.05N/04007.56E_000/000t052h95 Temp 24.1/11.3/11.8/15.3C Hum 95.0% (2026-05-07 02:22:40)
UB3APB-WY>APRS,TCPIP*,qAC,T2MOSCOW:!4435.05N/04007.56E_000/000t052h95 Temp 24.2/11.3/11.8/15.3C Hum 95.0% (2026-05-07 02:27:46)
UB3APB-WY>APRS,TCPIP*,qAC,T2RUSSIA2:!4435.05N/04007.56E_000/000t053h95 Temp 24.1/11.4/11.8/15.3C Hum 95.0% (2026-05-07 02:32:52)
UB3APB-WY>APRS,TCPIP*,qAC,T2ADG:!4435.05N/04007.56E_000/000t053h95 Temp 24.3/11.4/11.8/15.3C Hum 95.0% (2026-05-07 02:38:27)
UB3APB-WY>APRS,TCPIP*,qAC,T2VENYOV:!4435.05N/04007.56E_000/000t053h95 Temp 24.2/11.4/11.9/15.3C Hum 95.0% (2026-05-07 02:43:33)
UB3APB-WY>APRS,TCPIP*,qAC,T2RUSSIA2:!4435.05N/04007.56E_000/000t053h95 Temp 24.1/11.4/12.0/15.2C Hum 95.0% (2026-05-07 02:48:39)
UB3APB-WY>APRS,TCPIP*,qAC,T2MOSCOW:!4435.05N/04007.56E_000/000t053h95 Temp 24.2/11.5/11.9/15.2C Hum 95.0% (2026-05-07 02:54:15)
UB3APB-WY>APRS,TCPIP*,qAC,T2MOSCOW:!4435.05N/04007.56E_000/000t053h95 Temp 24.2/11.5/12.0/15.2C Hum 95.0% (2026-05-07 02:59:21)
UB3APB-WY>APRS,TCPIP*,qAC,T2VENYOV:!4435.05N/04007.56E_000/000t053h95 Temp 24.2/11.5/12.0/15.1C Hum 95.0% (2026-05-07 03:04:27)
UB3APB-WY>APRS,TCPIP*,qAC,T2MOSCOW:!4435.05N/04007.56E_000/000t053h94 Temp 24.1/11.5/12.1/15.1C Hum 94.0% (2026-05-07 03:09:33)
UB3APB-WY>APRS,TCPIP*,qAC,T2RUSSIA2:!4435.05N/04007.56E_000/000t053h94 Temp 24.1/11.6/12.0/15.1C Hum 94.0% (2026-05-07 03:14:40)
UB3APB-WY>APRS,TCPIP*,qAC,T2RUSSIA2:!4435.05N/04007.56E_000/000t053h94 Temp 24.1/11.5/12.0/15.1C Hum 94.0% (2026-05-07 03:19:46)
UB3APB-WY>APRS,TCPIP*,qAC,T2ADG:!4435.05N/04007.56E_000/000t053h94 Temp 24.1/11.7/12.0/15.1C Hum 94.0% (2026-05-07 03:25:21)
UB3APB-WY>APRS,TCPIP*,qAC,T2RUSSIA2:!4435.05N/04007.56E_000/000t053h94 Temp 24.1/11.6/12.1/15.1C Hum 94.0% (2026-05-07 03:30:27)
UB3APB-WY>APRS,TCPIP*,qAC,T2VENYOV:!4435.05N/04007.56E_000/000t053h94 Temp 24.1/11.6/12.1/15.1C Hum 94.0% (2026-05-07 03:35:33)
UB3APB-WY>APRS,TCPIP*,qAC,T2RUSSIA2:!4435.05N/04007.56E_000/000t053h94 Temp 24.2/11.6/12.0/15.0C Hum 94.0% (2026-05-07 03:40:39)
UB3APB-WY>APRS,TCPIP*,qAC,T2MOSCOW:!4435.05N/04007.56E_000/000t053h94 Temp 24.1/11.5/12.0/15.0C Hum 94.0% (2026-05-07 03:46:15)
UB3APB-WY>APRS,TCPIP*,qAC,T2ADG:!4435.05N/04007.56E_000/000t053h95 Temp 24.1/11.5/12.0/15.0C Hum 95.0% (2026-05-07 03:51:21)
UB3APB-WY>APRS,TCPIP*,qAC,T2RUSSIA2:!4435.05N/04007.56E_000/000t053h94 Temp 24.1/11.6/12.0/14.9C Hum 94.0% (2026-05-07 03:56:26)
UB3APB-WY>APRS,TCPIP*,qAC,T2VENYOV:!4435.05N/04007.56E_000/000t053h94 Temp 24.1/11.5/12.0/15.0C Hum 94.0% (2026-05-07 04:01:32)
UB3APB-WY>APRS,TCPIP*,qAC,T2MOSCOW:!4435.05N/04007.56E_000/000t053h94 Temp 24.1/11.5/12.0/14.9C Hum 94.0% (2026-05-07 04:06:38)
UB3APB-WY>APRS,TCPIP*,qAC,T2ADG:!4435.05N/04007.56E_000/000t053h94 Temp 24.1/11.5/12.0/14.9C Hum 94.0% (2026-05-07 04:11:44)
UB3APB-WY>APRS,TCPIP*,qAC,T2RUSSIA2:!4435.05N/04007.56E_000/000t053h94 Temp 24.1/11.5/12.0/14.9C Hum 94.0% (2026-05-07 04:16:50)
UB3APB-WY>APRS,TCPIP*,qAC,T2VENYOV:!4435.05N/04007.56E_000/000t053h94 Temp 24.1/11.5/11.9/14.9C Hum 94.0% (2026-05-07 04:21:55)
UB3APB-WY>APRS,TCPIP*,qAC,T2RUSSIA2:!4435.05N/04007.56E_000/000t053h95 Temp 24.1/11.4/11.8/14.8C Hum 95.0% (2026-05-07 04:27:01)
UB3APB-WY>APRS,TCPIP*,qAC,T2ADG:!4435.05N/04007.56E_000/000t053h94 Temp 24.1/11.5/11.9/14.8C Hum 94.0% (2026-05-07 04:32:37)
UB3APB-WY>APRS,TCPIP*,qAC,T2RUSSIA2:!4435.05N/04007.56E_000/000t053h94 Temp 24.1/11.5/11.9/14.8C Hum 94.0% (2026-05-07 04:37:42)
UB3APB-WY>APRS,TCPIP*,qAC,T2VENYOV:!4435.05N/04007.56E_000/000t053h94 Temp 24.2/11.4/11.9/14.8C Hum 94.0% (2026-05-07 04:42:48)
UB3APB-WY>APRS,TCPIP*,qAC,T2RUSSIA2:!4435.05N/04007.56E_000/000t053h94 Temp 24.0/11.4/11.8/14.8C Hum 94.0% (2026-05-07 04:47:54)
UB3APB-WY>APRS,TCPIP*,qAC,T2ADG:!4435.05N/04007.56E_000/000t052h95 Temp 24.0/11.3/11.8/14.8C Hum 95.0% (2026-05-07 04:53:31)
UB3APB-WY>APRS,TCPIP*,qAC,T2RUSSIA2:!4435.05N/04007.56E_000/000t052h95 Temp 24.1/11.2/11.8/14.8C Hum 95.0% (2026-05-07 04:58:36)
UB3APB-WY>APRS,TCPIP*,qAC,T2VENYOV:!4435.05N/04007.56E_000/000t052h95 Temp 24.0/11.1/11.7/14.8C Hum 95.0% (2026-05-07 05:03:42)
UB3APB-WY>APRS,TCPIP*,qAC,T2RUSSIA2:!4435.05N/04007.56E_000/000t052h95 Temp 24.0/11.1/11.6/14.7C Hum 95.0% (2026-05-07 05:08:48)
UB3APB-WY>APRS,TCPIP*,qAC,T2MOSCOW:!4435.05N/04007.56E_000/000t052h95 Temp 24.0/11.2/11.6/14.7C Hum 95.0% (2026-05-07 05:14:24)
UB3APB-WY>APRS,TCPIP*,qAC,T2RUSSIA2:!4435.05N/04007.56E_000/000t052h95 Temp 24.1/11.3/11.7/14.7C Hum 95.0% (2026-05-07 05:19:31)
UB3APB-WY>APRS,TCPIP*,qAC,T2VENYOV:!4435.05N/04007.56E_000/000t052h95 Temp 24.0/11.3/11.7/14.6C Hum 95.0% (2026-05-07 05:24:37)
UB3APB-WY>APRS,TCPIP*,qAC,T2RUSSIA2:!4435.05N/04007.56E_000/000t053h94 Temp 24.0/11.4/11.7/14.6C Hum 94.0% (2026-05-07 05:29:43)
UB3APB-WY>APRS,TCPIP*,qAC,T2MOSCOW:!4435.05N/04007.56E_000/000t053h94 Temp 24.0/11.4/11.9/14.6C Hum 94.0% (2026-05-07 05:35:19)
UB3APB-WY>APRS,TCPIP*,qAC,T2RUSSIA2:!4435.05N/04007.56E_000/000t053h94 Temp 24.1/11.4/11.8/14.6C Hum 94.0% (2026-05-07 05:40:24)
UB3APB-WY>APRS,TCPIP*,qAC,T2VENYOV:!4435.05N/04007.56E_000/000t053h94 Temp 24.0/11.4/11.8/14.6C Hum 94.0% (2026-05-07 05:45:30)
UB3APB-WY>APRS,TCPIP*,qAC,T2MOSCOW:!4435.05N/04007.56E_000/000t053h94 Temp 24.0/11.4/11.8/14.5C Hum 94.0% (2026-05-07 05:50:36)
UB3APB-WY>APRS,TCPIP*,qAC,T2ADG:!4435.05N/04007.56E_000/000t053h94 Temp 24.0/11.5/11.8/14.5C Hum 94.0% (2026-05-07 05:55:42)
UB3APB-WY>APRS,TCPIP*,qAC,T2RUSSIA2:!4435.05N/04007.56E_000/000t053h94 Temp 24.0/11.6/11.9/14.5C Hum 94.0% (2026-05-07 06:00:47)
UB3APB-WY>APRS,TCPIP*,qAC,T2RUSSIA2:!4435.05N/04007.56E_000/000t053h94 Temp 24.0/11.7/11.9/14.5C Hum 94.0% (2026-05-07 06:05:53)
UB3APB-WY>APRS,TCPIP*,qAC,T2VENYOV:!4435.05N/04007.56E_000/000t053h93 Temp 23.9/11.8/11.9/14.5C Hum 93.0% (2026-05-07 06:11:01)
UB3APB-WY>APRS,TCPIP*,qAC,T2RUSSIA2:!4435.05N/04007.56E_000/000t053h93 Temp 24.0/11.8/11.9/14.4C Hum 93.0% (2026-05-07 06:16:07)
UB3APB-WY>APRS,TCPIP*,qAC,T2VENYOV:!4435.05N/04007.56E_000/000t053h93 Temp 24.0/11.9/12.1/14.4C Hum 93.0% (2026-05-07 06:21:12)
UB3APB-WY>APRS,TCPIP*,qAC,T2RUSSIA2:!4435.05N/04007.56E_000/000t054h93 Temp 24.0/12.0/12.2/14.4C Hum 93.0% (2026-05-07 06:26:18)
UB3APB-WY>APRS,TCPIP*,qAC,T2MOSCOW:!4435.05N/04007.56E_000/000t054h93 Temp 24.0/12.1/12.3/14.4C Hum 93.0% (2026-05-07 06:31:54)
UB3APB-WY>APRS,TCPIP*,qAC,T2MOSCOW:!4435.05N/04007.56E_000/000t054h92 Temp 24.0/12.2/12.4/14.4C Hum 92.0% (2026-05-07 06:37:00)
UB3APB-WY>APRS,TCPIP*,qAC,T2ADG:!4435.05N/04007.56E_000/000t054h92 Temp 24.0/12.4/12.5/14.4C Hum 92.0% (2026-05-07 06:42:06)
UB3APB-WY>APRS,TCPIP*,qAC,T2ADG:!4435.05N/04007.56E_000/000t054h92 Temp 24.0/12.4/12.5/14.4C Hum 92.0% (2026-05-07 06:47:11)
UB3APB-WY>APRS,TCPIP*,qAC,T2ADG:!4435.05N/04007.56E_000/000t055h91 Temp 24.0/12.6/12.6/14.4C Hum 91.0% (2026-05-07 06:52:17)
UB3APB-WY>APRS,TCPIP*,qAC,T2RUSSIA2:!4435.05N/04007.56E_000/000t054h90 Temp 24.0/12.4/12.5/14.4C Hum 90.0% (2026-05-07 06:57:23)
UB3APB-WY>APRS,TCPIP*,qAC,T2ADG:!4435.05N/04007.56E_000/000t055h89 Temp 24.0/12.8/12.8/14.4C Hum 89.0% (2026-05-07 07:02:59)
UB3APB-WY>APRS,TCPIP*,qAC,T2RUSSIA2:!4435.05N/04007.56E_000/000t055h89 Temp 24.0/13.0/13.0/14.4C Hum 89.0% (2026-05-07 07:08:05)
UB3APB-WY>APRS,TCPIP*,qAC,T2VENYOV:!4435.05N/04007.56E_000/000t056h89 Temp 24.0/13.2/12.9/14.4C Hum 89.0% (2026-05-07 07:13:10)
UB3APB-WY>APRS,TCPIP*,qAC,T2RUSSIA2:!4435.05N/04007.56E_000/000t056h89 Temp 24.0/13.1/13.0/14.4C Hum 89.0% (2026-05-07 07:18:16)
UB3APB-WY>APRS,TCPIP*,qAC,T2MOSCOW:!4435.05N/04007.56E_000/000t055h89 Temp 24.0/13.0/12.8/14.4C Hum 89.0% (2026-05-07 07:23:52)
UB3APB-WY>APRS,TCPIP*,qAC,T2RUSSIA2:!4435.05N/04007.56E_000/000t056h88 Temp 24.0/13.4/13.3/14.4C Hum 88.0% (2026-05-07 07:28:57)
UB3APB-WY>APRS,TCPIP*,qAC,T2VENYOV:!4435.05N/04007.56E_000/000t057h85 Temp 24.0/13.7/13.6/14.4C Hum 85.0% (2026-05-07 07:34:03)
UB3APB-WY>APRS,TCPIP*,qAC,T2VENYOV:!4435.05N/04007.56E_000/000t058h85 Temp 24.0/14.4/13.8/14.4C Hum 85.0% (2026-05-07 07:39:09)
UB3APB-WY>APRS,TCPIP*,qAC,T2RUSSIA2:!4435.05N/04007.56E_000/000t058h82 Temp 24.1/14.4/14.1/14.4C Hum 82.0% (2026-05-07 07:44:15)
UB3APB-WY>APRS,TCPIP*,qAC,T2VENYOV:!4435.05N/04007.56E_000/000t058h82 Temp 24.2/14.3/13.9/14.4C Hum 82.0% (2026-05-07 07:49:22)
UB3APB-WY>APRS,TCPIP*,qAC,T2MOSCOW:!4435.05N/04007.56E_000/000t058h82 Temp 24.2/14.3/14.1/14.4C Hum 82.0% (2026-05-07 07:54:28)
UB3APB-WY>APRS,TCPIP*,qAC,T2ADG:!4435.05N/04007.56E_000/000t058h82 Temp 24.2/14.6/14.3/14.4C Hum 82.0% (2026-05-07 07:59:33)
UB3APB-WY>APRS,TCPIP*,qAC,T2RUSSIA2:!4435.05N/04007.56E_000/000t059h79 Temp 24.2/15.1/14.8/14.4C Hum 79.0% (2026-05-07 08:04:39)
UB3APB-WY>APRS,TCPIP*,qAC,T2MOSCOW:!4435.05N/04007.56E_000/000t059h79 Temp 24.2/15.0/14.8/14.4C Hum 79.0% (2026-05-07 08:09:45)
UB3APB-WY>APRS,TCPIP*,qAC,T2ADG:!4435.05N/04007.56E_000/000t059h78 Temp 24.2/15.1/14.9/14.5C Hum 78.0% (2026-05-07 08:14:51)
UB3APB-WY>APRS,TCPIP*,qAC,T2VENYOV:!4435.05N/04007.56E_000/000t059h77 Temp 24.2/15.2/14.8/14.6C Hum 77.0% (2026-05-07 08:19:57)
UB3APB-WY>APRS,TCPIP*,qAC,T2RUSSIA2:!4435.05N/04007.56E_000/000t059h78 Temp 24.2/15.2/15.0/14.6C Hum 78.0% (2026-05-07 08:25:02)
UB3APB-WY>APRS,TCPIP*,qAC,T2MOSCOW:!4435.05N/04007.56E_000/000t060h78 Temp 24.2/15.3/15.2/14.6C Hum 78.0% (2026-05-07 08:30:37)
UB3APB-WY>APRS,TCPIP*,qAC,T2MOSCOW:!4435.05N/04007.56E_000/000t060h76 Temp 24.2/15.3/15.1/14.6C Hum 76.0% (2026-05-07 08:35:43)
UB3APB-WY>APRS,TCPIP*,qAC,T2ADG:!4435.05N/04007.56E_000/000t060h75 Temp 24.3/15.8/15.5/14.7C Hum 75.0% (2026-05-07 08:40:49)
UB3APB-WY>APRS,TCPIP*,qAC,T2VENYOV:!4435.05N/04007.56E_000/000t060h75 Temp 24.2/15.6/15.1/14.8C Hum 75.0% (2026-05-07 08:45:55)
UB3APB-WY>APRS,TCPIP*,qAC,T2RUSSIA2:!4435.05N/04007.56E_000/000t060h75 Temp 24.2/15.7/15.6/14.8C Hum 75.0% (2026-05-07 08:51:01)
UB3APB-WY>APRS,TCPIP*,qAC,T2RUSSIA2:!4435.05N/04007.56E_000/000t060h75 Temp 24.3/15.6/15.9/14.8C Hum 75.0% (2026-05-07 08:56:37)
UB3APB-WY>APRS,TCPIP*,qAC,T2ADG:!4435.05N/04007.56E_000/000t061h75 Temp 24.3/16.1/16.0/14.9C Hum 75.0% (2026-05-07 09:01:43)
UB3APB-WY>APRS,TCPIP*,qAC,T2RUSSIA2:!4435.05N/04007.56E_000/000t061h75 Temp 24.3/15.9/15.3/15.0C Hum 75.0% (2026-05-07 09:06:49)
UB3APB-WY>APRS,TCPIP*,qAC,T2VENYOV:!4435.05N/04007.56E_000/000t061h75 Temp 24.3/15.9/15.9/15.0C Hum 75.0% (2026-05-07 09:11:55)
UB3APB-WY>APRS,TCPIP*,qAC,T2RUSSIA2:!4435.05N/04007.56E_000/000t032h00 Temp 0.0/---/---/---C Hum 0.0% (2026-05-07 09:17:46)
UB3APB-WY>APRS,TCPIP*,qAC,T2ADG:!4435.05N/04007.56E_000/000t032h00 Temp 0.0/---/---/---C Hum 0.0% (2026-05-07 09:26:08)
UB3APB-WY>APRS,TCPIP*,qAC,T2ADG:!4435.05N/04007.56E_000/000t032h00 Temp 0.0/---/---/---C Hum 0.0% (2026-05-07 09:34:14)
UB3APB-WY>APRS,TCPIP*,qAC,T2RUSSIA2:!4435.05N/04007.56E_000/000t032h00 Temp 0.0/---/---/---C Hum 0.0% (2026-05-07 09:42:21)